TimeEST,TemperatureF,Dew PointF,Humidity,Sea Level PressureIn,VisibilityMPH,Wind Direction,Wind SpeedMPH,Gust SpeedMPH,PrecipitationIn,Events,Conditions,WindDirDegrees,DateUTC
12:53 AM,46.0,41.0,83,29.76,9.0,South,25.3,42.6,0.01,Rain,Light Rain,190,2013-02-19 05:53:00
1:53 AM,45.0,39.9,82,29.73,10.0,South,13.8,23.0,0.00,,Overcast,190,2013-02-19 06:53:00
2:53 AM,46.0,41.0,83,29.71,10.0,SSW,20.7,28.8,0.00,Rain,Light Rain,200,2013-02-19 07:53:00
3:00 AM,46.4,41.0,81,29.71,10.0,SSW,19.6,28.8,0.00,Rain,Light Rain,210,2013-02-19 08:00:00
3:53 AM,45.0,42.1,90,29.69,6.0,SSW,21.9,33.4,0.00,Rain,Light Rain,200,2013-02-19 08:53:00
4:53 AM,44.1,43.0,96,29.71,6.0,SSW,17.3,26.5,0.02,Rain,Rain,210,2013-02-19 09:53:00
5:12 AM,39.2,37.4,93,29.75,7.0,WNW,19.6,33.4,0.01,Rain,Light Rain,290,2013-02-19 10:12:00
5:41 AM,37.4,37.4,100,29.78,6.0,West,19.6,-,0.03,Rain,Rain,260,2013-02-19 10:41:00
5:53 AM,36.0,35.1,97,29.79,7.0,WSW,16.1,24.2,0.04,Rain,Light Rain,240,2013-02-19 10:53:00
6:26 AM,35.6,35.6,100,29.80,10.0,WSW,12.7,-,0.00,,Overcast,250,2013-02-19 11:26:00
6:39 AM,35.6,35.6,100,29.80,10.0,West,15.0,26.5,0.00,Rain,Light Rain,270,2013-02-19 11:39:00
6:53 AM,36.0,35.1,97,29.82,9.0,WSW,11.5,20.7,0.00,Rain,Light Rain,250,2013-02-19 11:53:00
7:53 AM,33.1,28.9,85,29.86,10.0,WSW,20.7,32.2,0.00,,Overcast,250,2013-02-19 12:53:00
8:53 AM,33.1,27.0,78,29.89,10.0,WSW,15.0,24.2,N/A,,Overcast,240,2013-02-19 13:53:00
9:53 AM,33.1,25.0,72,29.90,10.0,West,21.9,27.6,N/A,,Overcast,260,2013-02-19 14:53:00
10:53 AM,33.1,24.1,70,29.91,10.0,WSW,24.2,29.9,N/A,,Overcast,240,2013-02-19 15:53:00
11:53 AM,33.1,21.9,64,29.93,10.0,WSW,23.0,32.2,N/A,,Overcast,250,2013-02-19 16:53:00
1:53 PM,33.1,23.0,66,29.95,10.0,West,17.3,25.3,N/A,,Overcast,260,2013-02-19 18:53:00
2:53 PM,33.1,19.9,59,29.97,10.0,West,17.3,31.1,N/A,,Overcast,260,2013-02-19 19:53:00
3:53 PM,32.0,18.0,56,30.00,10.0,West,21.9,36.8,N/A,,Overcast,270,2013-02-19 20:53:00
4:53 PM,30.9,18.0,59,30.04,10.0,West,16.1,21.9,N/A,,Overcast,270,2013-02-19 21:53:00
5:53 PM,30.0,17.1,59,30.06,10.0,West,16.1,21.9,N/A,,Overcast,270,2013-02-19 22:53:00
7:53 PM,28.9,15.1,56,30.12,10.0,West,21.9,28.8,N/A,,Overcast,270,2013-02-20 00:53:00
8:53 PM,28.0,14.0,56,30.13,10.0,West,17.3,25.3,N/A,,Overcast,270,2013-02-20 01:53:00
9:53 PM,27.0,14.0,58,30.15,10.0,West,11.5,-,N/A,,Overcast,280,2013-02-20 02:53:00
10:53 PM,26.1,14.0,60,30.16,9.0,WNW,12.7,27.6,0.00,,Overcast,290,2013-02-20 03:53:00
11:53 PM,26.1,14.0,60,30.17,10.0,West,13.8,21.9,0.00,,Overcast,280,2013-02-20 04:53:00